• In Uzbekistan
  • List of Countries
  • For 7 days
  • Water Temperature
  • Satellite Maps
  • Weather Map
  • Weather Widgets
  • user-avatar
    Login

    Hourly Weather Novoe Ibraykino

    Today, 20 November, Tuesday

    Time Temperature Precipitation Wind Pressure Humidity
    00:00 -2°C° 0 mm 2 mps 753 mmHg 96%
    01:00 -2°C° 0.1 mm 2 mps 753 mmHg 96%
    02:00 -2°C° 0.1 mm 2 mps 753 mmHg 96%
    03:00 -2°C° 0 mm 2 mps 753 mmHg 96%
    04:00 -2°C° 0.1 mm 2 mps 753 mmHg 96%
    05:00 -2°C° 0.1 mm 2 mps 752 mmHg 96%
    06:00 -2°C° 0.1 mm 2 mps 752 mmHg 96%
    07:00 -2°C° 0.1 mm 2 mps 752 mmHg 94%
    08:00 -2°C° 0.1 mm 2 mps 752 mmHg 93%
    09:00 -2°C° 0 mm 2 mps 752 mmHg 91%
    10:00 -2°C° 0.1 mm 2 mps 752 mmHg 90%
    11:00 -2°C° 0.1 mm 2 mps 752 mmHg 88%
    12:00 -2°C° 0.1 mm 2 mps 752 mmHg 86%
    13:00 -2°C° 0.1 mm 2 mps 751 mmHg 87%
    14:00 -2°C° 0.1 mm 2 mps 751 mmHg 87%
    15:00 -2°C° 0 mm 2 mps 751 mmHg 87%
    16:00 -4°C° 0 mm 3 mps 750 mmHg 87%
    17:00 -4°C° 0 mm 3 mps 750 mmHg 87%
    18:00 -4°C° 0 mm 3 mps 750 mmHg 87%
    19:00 -5°C° 0 mm 3 mps 749 mmHg 86%
    20:00 -5°C° 0 mm 3 mps 749 mmHg 85%
    21:00 -5°C° 0 mm 3 mps 749 mmHg 85%
    22:00 -5°C° 0 mm 3 mps 748 mmHg 85%
    23:00 -6°C° 0 mm 3 mps 748 mmHg 86%

    Tomorrow, 21 November, Wednesday

    Time Temperature Precipitation Wind Pressure Humidity
    00:00 -6°C° 0 mm 3 mps 747 mmHg 86%
    01:00 -7°C° 0.1 mm 4 mps 747 mmHg 87%
    02:00 -5°C° 0.1 mm 4 mps 746 mmHg 87%
    03:00 -6°C° 0.1 mm 5 mps 745 mmHg 88%
    04:00 -6°C° 0.2 mm 5 mps 745 mmHg 88%
    05:00 -6°C° 0.2 mm 5 mps 744 mmHg 88%
    06:00 -6°C° 0.2 mm 5 mps 744 mmHg 88%
    07:00 -6°C° 0.3 mm 5 mps 743 mmHg 87%
    08:00 -6°C° 0.3 mm 6 mps 743 mmHg 86%
    09:00 -6°C° 0.3 mm 6 mps 742 mmHg 85%
    10:00 -6°C° 0.1 mm 6 mps 742 mmHg 84%
    11:00 -5°C° 0.1 mm 6 mps 741 mmHg 83%
    12:00 -5°C° 0.1 mm 6 mps 741 mmHg 82%
    13:00 -5°C° 0.1 mm 6 mps 741 mmHg 83%
    14:00 -5°C° 0.1 mm 6 mps 741 mmHg 83%
    15:00 -5°C° 0.1 mm 6 mps 741 mmHg 83%
    16:00 -5°C° 0.1 mm 6 mps 741 mmHg 82%
    17:00 -6°C° 0.1 mm 6 mps 741 mmHg 80%
    18:00 -6°C° 0.1 mm 5 mps 741 mmHg 79%
    19:00 -7°C° 0 mm 5 mps 741 mmHg 79%
    20:00 -7°C° 0 mm 5 mps 741 mmHg 79%
    21:00 -8°C° 0 mm 5 mps 741 mmHg 79%
    22:00 -8°C° 0 mm 5 mps 741 mmHg 81%
    23:00 -10°C° 0 mm 5 mps 741 mmHg 83%

    Day after tomorrow, 22 November, Thursday

    Time Temperature Precipitation Wind Pressure Humidity
    00:00 -9°C° 0 mm 4 mps 741 mmHg 85%
    01:00 -9°C° 0 mm 4 mps 741 mmHg 85%
    02:00 -9°C° 0 mm 4 mps 741 mmHg 86%
    03:00 -9°C° 0 mm 4 mps 741 mmHg 87%
    04:00 -9°C° 0 mm 4 mps 741 mmHg 87%
    05:00 -10°C° 0 mm 5 mps 741 mmHg 87%
    06:00 -8°C° 0 mm 5 mps 741 mmHg 87%
    07:00 -8°C° 0 mm 4 mps 741 mmHg 88%
    08:00 -8°C° 0 mm 4 mps 740 mmHg 89%
    09:00 -7°C° 0 mm 3 mps 740 mmHg 90%
    10:00 -8°C° 0.1 mm 4 mps 740 mmHg 88%
    11:00 -7°C° 0.1 mm 4 mps 740 mmHg 85%
    12:00 -5°C° 0.1 mm 4 mps 739 mmHg 83%
    13:00 -6°C° 0.1 mm 5 mps 739 mmHg 83%
    14:00 -6°C° 0.1 mm 5 mps 738 mmHg 84%
    15:00 -6°C° 0.1 mm 5 mps 737 mmHg 84%
    16:00 -6°C° 0.4 mm 6 mps 736 mmHg 86%
    17:00 -8°C° 0.4 mm 6 mps 736 mmHg 88%
    18:00 -8°C° 0.4 mm 7 mps 735 mmHg 90%
    19:00 -8°C° 0.4 mm 7 mps 734 mmHg 90%
    20:00 -8°C° 0.4 mm 7 mps 734 mmHg 90%
    21:00 -6°C° 0.4 mm 6 mps 733 mmHg 90%
    22:00 -6°C° 0.3 mm 6 mps 733 mmHg 89%
    23:00 -6°C° 0.3 mm 6 mps 732 mmHg 88%

    23 November, Friday

    Time Temperature Precipitation Wind Pressure Humidity
    00:00 -6°C° 0.3 mm 6 mps 732 mmHg 88%
    01:00 -6°C° 0.1 mm 5 mps 731 mmHg 90%
    02:00 -6°C° 0.1 mm 3 mps 731 mmHg 92%
    03:00 -5°C° 0.1 mm 2 mps 731 mmHg 94%
    04:00 -7°C° 0.4 mm 3 mps 731 mmHg 94%
    05:00 -7°C° 0.4 mm 3 mps 731 mmHg 94%
    06:00 -8°C° 0.4 mm 4 mps 731 mmHg 94%
    07:00 -10°C° 0.2 mm 5 mps 732 mmHg 92%
    08:00 -10°C° 0.2 mm 6 mps 733 mmHg 90%
    09:00 -12°C° 0.2 mm 7 mps 734 mmHg 88%
    10:00 -12°C° 0 mm 7 mps 736 mmHg 85%
    11:00 -12°C° 0 mm 7 mps 737 mmHg 81%
    12:00 -12°C° 0 mm 7 mps 738 mmHg 78%
    13:00 -11°C° 0 mm 6 mps 739 mmHg 80%
    14:00 -12°C° 0 mm 6 mps 740 mmHg 82%
    15:00 -12°C° 0 mm 6 mps 742 mmHg 84%
    16:00 -12°C° 0 mm 6 mps 742 mmHg 85%
    17:00 -13°C° 0 mm 5 mps 743 mmHg 86%
    18:00 -13°C° 0 mm 5 mps 744 mmHg 86%
    19:00 -14°C° 0 mm 5 mps 744 mmHg 87%
    20:00 -14°C° 0 mm 5 mps 744 mmHg 88%
    21:00 -14°C° 0 mm 4 mps 745 mmHg 89%
    22:00 -13°C° 0 mm 5 mps 745 mmHg 89%
    23:00 -13°C° 0 mm 5 mps 745 mmHg 89%

    24 November, Saturday

    Time Temperature Precipitation Wind Pressure Humidity
    00:00 -13°C° 0 mm 5 mps 745 mmHg 89%
    01:00 -12°C° 0.1 mm 5 mps 745 mmHg 89%
    02:00 -12°C° 0.1 mm 5 mps 745 mmHg 89%
    03:00 -12°C° 0.1 mm 6 mps 745 mmHg 89%
    04:00 -11°C° 0.1 mm 6 mps 745 mmHg 89%
    05:00 -11°C° 0.1 mm 6 mps 745 mmHg 89%
    06:00 -11°C° 0.1 mm 6 mps 745 mmHg 89%
    07:00 -10°C° 0 mm 6 mps 746 mmHg 89%
    08:00 -10°C° 0 mm 6 mps 746 mmHg 89%
    09:00 -10°C° 0 mm 6 mps 746 mmHg 89%
    10:00 -9°C° 0.1 mm 6 mps 746 mmHg 89%
    11:00 -9°C° 0.1 mm 7 mps 746 mmHg 89%
    12:00 -8°C° 0.1 mm 7 mps 746 mmHg 89%
    13:00 -8°C° 0 mm 7 mps 746 mmHg 88%
    14:00 -8°C° 0 mm 7 mps 745 mmHg 88%
    15:00 -8°C° 0 mm 7 mps 745 mmHg 88%
    16:00 -8°C° 0.1 mm 7 mps 745 mmHg 88%
    17:00 -8°C° 0.1 mm 7 mps 745 mmHg 87%
    18:00 -8°C° 0.1 mm 6 mps 745 mmHg 87%
    19:00 -8°C° 0 mm 6 mps 745 mmHg 87%
    20:00 -8°C° 0 mm 6 mps 745 mmHg 87%
    21:00 -8°C° 0 mm 6 mps 745 mmHg 87%
    22:00 -8°C° 0 mm 6 mps 745 mmHg 87%
    23:00 -8°C° 0 mm 6 mps 745 mmHg 88%

    25 November, Sunday

    Time Temperature Precipitation Wind Pressure Humidity
    00:00 -8°C° 0 mm 6 mps 745 mmHg 88%
    01:00 -8°C° 0 mm 6 mps 745 mmHg 88%
    02:00 -8°C° 0 mm 6 mps 745 mmHg 88%
    03:00 -6°C° 0 mm 6 mps 745 mmHg 88%
    04:00 -6°C° 0 mm 6 mps 744 mmHg 88%
    05:00 -6°C° 0 mm 6 mps 744 mmHg 88%
    06:00 -7°C° 0 mm 7 mps 744 mmHg 88%
    07:00 -7°C° 0.1 mm 7 mps 744 mmHg 88%
    08:00 -7°C° 0.1 mm 7 mps 744 mmHg 88%
    09:00 -7°C° 0.1 mm 7 mps 744 mmHg 88%
    10:00 -7°C° 0.1 mm 7 mps 744 mmHg 87%
    11:00 -7°C° 0.1 mm 7 mps 744 mmHg 87%
    12:00 -7°C° 0.1 mm 7 mps 744 mmHg 87%
    13:00 -6°C° 0.1 mm 6 mps 744 mmHg 87%
    14:00 -6°C° 0.1 mm 5 mps 745 mmHg 88%
    15:00 -6°C° 0.1 mm 5 mps 745 mmHg 88%
    16:00 -5°C° 0 mm 4 mps 745 mmHg 89%
    17:00 -5°C° 0 mm 4 mps 746 mmHg 90%
    18:00 -5°C° 0 mm 4 mps 746 mmHg 91%
    19:00 -6°C° 0 mm 3 mps 746 mmHg 92%
    20:00 -6°C° 0 mm 3 mps 747 mmHg 93%
    21:00 -7°C° 0 mm 3 mps 747 mmHg 95%
    22:00 -7°C° 0 mm 3 mps 747 mmHg 95%
    23:00 -6°C° 0 mm 2 mps 748 mmHg 95%
    Show more